When you browse on this site, cookies collect data to enhance your experience and personalize the content and advertising you see.
Visit our Privacy Policy to learn more. By continuing to use the site, you agree to this use of cookies and data.

Hourly Weather Ilincy

Today, 16 July, Thursday

Time Temperature Precipitation Wind Pressure Humidity
00:00 +14°C° 0 mm 1 mps 739 mmHg 88%
01:00 +14°C° 0 mm 1 mps 739 mmHg 89%
02:00 +14°C° 0 mm 1 mps 739 mmHg 87%
03:00 +14°C° 0 mm 1 mps 739 mmHg 87%
04:00 +13°C° 0 mm 0 mps 739 mmHg 87%
05:00 +13°C° 0 mm 0 mps 739 mmHg 87%
06:00 +15°C° 0 mm 0 mps 739 mmHg 82%
07:00 +18°C° 0 mm 1 mps 739 mmHg 77%
08:00 +18°C° 0 mm 0 mps 739 mmHg 72%
09:00 +20°C° 0 mm 0 mps 739 mmHg 67%
10:00 +21°C° 0 mm 0 mps 739 mmHg 62%
11:00 +23°C° 0 mm 0 mps 739 mmHg 57%
12:00 +23°C° 0.3 mm 0 mps 739 mmHg 55%
13:00 +25°C° 0.3 mm 1 mps 739 mmHg 53%
14:00 +26°C° 0.3 mm 1 mps 739 mmHg 51%
15:00 +25°C° 0.2 mm 1 mps 738 mmHg 54%
16:00 +25°C° 0.2 mm 1 mps 738 mmHg 57%
17:00 +25°C° 0.2 mm 1 mps 738 mmHg 59%
18:00 +23°C° 0.4 mm 1 mps 738 mmHg 65%
19:00 +21°C° 0.4 mm 1 mps 738 mmHg 71%
20:00 +19°C° 0.4 mm 1 mps 738 mmHg 77%
21:00 +19°C° 0.1 mm 1 mps 738 mmHg 80%
22:00 +18°C° 0.1 mm 1 mps 738 mmHg 84%
23:00 +16°C° 0.1 mm 2 mps 738 mmHg 87%

Tomorrow, 17 July, Friday

Time Temperature Precipitation Wind Pressure Humidity
00:00 +16°C° 0.1 mm 1 mps 738 mmHg 88%
01:00 +15°C° 0.1 mm 1 mps 738 mmHg 88%
02:00 +15°C° 0.1 mm 1 mps 738 mmHg 89%
03:00 +15°C° 0 mm 1 mps 738 mmHg 88%
04:00 +15°C° 0 mm 1 mps 738 mmHg 87%
05:00 +15°C° 0 mm 1 mps 738 mmHg 87%
06:00 +18°C° 0 mm 1 mps 738 mmHg 82%
07:00 +20°C° 0 mm 1 mps 738 mmHg 77%
08:00 +21°C° 0 mm 2 mps 739 mmHg 72%
09:00 +23°C° 0.3 mm 2 mps 739 mmHg 67%
10:00 +24°C° 0.3 mm 2 mps 739 mmHg 62%
11:00 +25°C° 0.3 mm 3 mps 739 mmHg 57%
12:00 +26°C° 0 mm 3 mps 739 mmHg 55%
13:00 +26°C° 0 mm 3 mps 739 mmHg 54%
14:00 +26°C° 0 mm 3 mps 739 mmHg 53%
15:00 +26°C° 0.2 mm 3 mps 739 mmHg 55%
16:00 +26°C° 0.2 mm 3 mps 739 mmHg 57%
17:00 +26°C° 0.2 mm 2 mps 739 mmHg 59%
18:00 +24°C° 0.3 mm 2 mps 739 mmHg 66%
19:00 +21°C° 0.3 mm 2 mps 739 mmHg 72%
20:00 +19°C° 0.3 mm 2 mps 739 mmHg 78%
21:00 +19°C° 0 mm 2 mps 739 mmHg 80%
22:00 +18°C° 0 mm 2 mps 739 mmHg 82%
23:00 +18°C° 0 mm 2 mps 740 mmHg 84%

Day after tomorrow, 18 July, Saturday

Time Temperature Precipitation Wind Pressure Humidity
00:00 +17°C° 0 mm 2 mps 740 mmHg 85%
01:00 +17°C° 0 mm 2 mps 740 mmHg 86%
02:00 +16°C° 0 mm 2 mps 740 mmHg 87%
03:00 +16°C° 0 mm 2 mps 740 mmHg 87%
04:00 +16°C° 0 mm 2 mps 740 mmHg 87%
05:00 +16°C° 0 mm 2 mps 740 mmHg 87%
06:00 +18°C° 0 mm 2 mps 740 mmHg 82%
07:00 +19°C° 0 mm 3 mps 740 mmHg 78%
08:00 +21°C° 0 mm 3 mps 741 mmHg 74%
09:00 +22°C° 0 mm 3 mps 741 mmHg 68%
10:00 +25°C° 0 mm 3 mps 741 mmHg 62%
11:00 +26°C° 0 mm 3 mps 741 mmHg 56%
12:00 +27°C° 0.2 mm 3 mps 741 mmHg 54%
13:00 +27°C° 0.2 mm 3 mps 740 mmHg 53%
14:00 +28°C° 0.2 mm 3 mps 740 mmHg 52%
15:00 +27°C° 0.3 mm 3 mps 740 mmHg 54%
16:00 +27°C° 0.3 mm 3 mps 740 mmHg 56%
17:00 +27°C° 0.3 mm 3 mps 740 mmHg 59%
18:00 +25°C° 0.2 mm 3 mps 740 mmHg 66%
19:00 +22°C° 0.2 mm 3 mps 740 mmHg 72%
20:00 +20°C° 0.2 mm 3 mps 740 mmHg 79%
21:00 +19°C° 0 mm 2 mps 740 mmHg 82%
22:00 +19°C° 0 mm 2 mps 740 mmHg 84%
23:00 +18°C° 0 mm 2 mps 740 mmHg 86%

19 July, Sunday

Time Temperature Precipitation Wind Pressure Humidity
00:00 +18°C° 0 mm 2 mps 740 mmHg 87%
01:00 +18°C° 0 mm 2 mps 740 mmHg 88%
02:00 +17°C° 0 mm 2 mps 740 mmHg 89%
03:00 +17°C° 0 mm 2 mps 740 mmHg 89%
04:00 +17°C° 0 mm 2 mps 740 mmHg 89%
05:00 +17°C° 0 mm 2 mps 740 mmHg 89%
06:00 +19°C° 0 mm 2 mps 740 mmHg 84%
07:00 +20°C° 0 mm 2 mps 740 mmHg 79%
08:00 +23°C° 0 mm 2 mps 741 mmHg 73%
09:00 +24°C° 0.1 mm 3 mps 740 mmHg 68%
10:00 +25°C° 0.1 mm 3 mps 740 mmHg 62%
11:00 +27°C° 0.1 mm 3 mps 740 mmHg 56%
12:00 +27°C° 0 mm 3 mps 740 mmHg 55%
13:00 +27°C° 0 mm 4 mps 740 mmHg 54%
14:00 +28°C° 0 mm 4 mps 740 mmHg 53%
15:00 +27°C° 0.1 mm 4 mps 739 mmHg 55%
16:00 +27°C° 0.1 mm 4 mps 739 mmHg 57%
17:00 +27°C° 0.1 mm 4 mps 739 mmHg 59%
18:00 +25°C° 0.1 mm 3 mps 739 mmHg 65%
19:00 +22°C° 0.1 mm 3 mps 739 mmHg 71%
20:00 +21°C° 0.1 mm 2 mps 739 mmHg 76%
21:00 +20°C° 0 mm 2 mps 739 mmHg 78%
22:00 +19°C° 0 mm 2 mps 739 mmHg 80%
23:00 +19°C° 0 mm 2 mps 739 mmHg 81%

20 July, Monday

Time Temperature Precipitation Wind Pressure Humidity
00:00 +18°C° 0 mm 2 mps 739 mmHg 81%
01:00 +18°C° 0 mm 2 mps 739 mmHg 81%
02:00 +18°C° 0 mm 3 mps 738 mmHg 81%
03:00 +18°C° 0 mm 3 mps 738 mmHg 82%
04:00 +17°C° 0 mm 3 mps 738 mmHg 84%
05:00 +17°C° 0 mm 3 mps 738 mmHg 85%
06:00 +19°C° 0 mm 3 mps 738 mmHg 82%
07:00 +20°C° 0 mm 3 mps 738 mmHg 79%
08:00 +22°C° 0 mm 3 mps 738 mmHg 76%
09:00 +24°C° 0.4 mm 3 mps 738 mmHg 71%
10:00 +26°C° 0.4 mm 3 mps 738 mmHg 65%
11:00 +27°C° 0.4 mm 3 mps 738 mmHg 60%
12:00 +27°C° 0.7 mm 3 mps 738 mmHg 59%
13:00 +28°C° 0.7 mm 3 mps 737 mmHg 58%
14:00 +28°C° 0.7 mm 2 mps 737 mmHg 57%
15:00 +27°C° 1.3 mm 3 mps 737 mmHg 65%
16:00 +25°C° 1.3 mm 4 mps 736 mmHg 72%
17:00 +23°C° 1.3 mm 5 mps 736 mmHg 80%
18:00 +22°C° 0.5 mm 4 mps 736 mmHg 83%
19:00 +21°C° 0.5 mm 3 mps 736 mmHg 87%
20:00 +20°C° 0.5 mm 2 mps 736 mmHg 91%
21:00 +20°C° 0.4 mm 1 mps 736 mmHg 91%
22:00 +20°C° 0.4 mm 1 mps 736 mmHg 91%
23:00 +19°C° 0.4 mm 1 mps 736 mmHg 91%

21 July, Tuesday

Time Temperature Precipitation Wind Pressure Humidity
00:00 +19°C° 0 mm 1 mps 736 mmHg 91%
01:00 +18°C° 0 mm 2 mps 736 mmHg 91%
02:00 +18°C° 0 mm 2 mps 737 mmHg 91%
03:00 +17°C° 0 mm 2 mps 737 mmHg 92%
04:00 +17°C° 0 mm 2 mps 737 mmHg 92%
05:00 +17°C° 0 mm 3 mps 737 mmHg 92%
06:00 +19°C° 0 mm 3 mps 737 mmHg 88%
07:00 +21°C° 0 mm 3 mps 737 mmHg 83%
08:00 +22°C° 0 mm 3 mps 737 mmHg 79%
09:00 +25°C° 0 mm 3 mps 737 mmHg 72%
10:00 +26°C° 0 mm 3 mps 738 mmHg 65%
11:00 +27°C° 0 mm 2 mps 738 mmHg 58%
12:00 +28°C° 0 mm 3 mps 737 mmHg 56%
13:00 +28°C° 0 mm 3 mps 737 mmHg 54%
14:00 +29°C° 0 mm 3 mps 737 mmHg 52%
15:00 +28°C° 0.2 mm 3 mps 737 mmHg 57%
16:00 +28°C° 0.2 mm 4 mps 737 mmHg 62%
17:00 +27°C° 0.2 mm 4 mps 737 mmHg 67%
18:00 +25°C° 0.7 mm 4 mps 737 mmHg 74%
19:00 +22°C° 0.7 mm 4 mps 738 mmHg 81%
20:00 +21°C° 0.7 mm 5 mps 738 mmHg 89%
21:00 +20°C° 0 mm 5 mps 738 mmHg 89%
22:00 +19°C° 0 mm 5 mps 738 mmHg 90%
23:00 +19°C° 0 mm 5 mps 739 mmHg 91%
Show more